|
NORAD ID: 4391 Int'l Code: 1970-036J
Perigee: 1,475.0 km
Apogee: 1,595.5 km
Inclination: 74.0 °
Period: 116.6 minutes
Semi major axis: 7906 km
Launch date: April 25, 1970
Source: Commonwealth of Independent States (former USSR) (CIS)
Note: This is a ROCKET BODY
Two Line Element Set (TLE):
1 04391U 70036J 13141.46155044 .00000007 00000-0 17485-3 0 9492
2 04391 074.0286 313.4416 0076209 326.3828 093.9449 12.34949225941984
Source:
NASA's NSSDC Master Catalog entry for SL-8 R/B
|